Погода Исанбай

Погода Исанбай : погода сейчас, прогноз погоды и архив. Всё, что Вы хотите узнать о погоде Исанбай!

Поиск расширенной информации на нашем сайте:

Другие новости

Новости СМИ2

Главная страница сайта

Новости сайта

03.07.2017

Напоминаем, что на нашем специализированном сайте Метеоцентр.Азия вы можете получить высокодетализированные автоматические прогнозы погоды по пунктам России, СНГ и мира в авиационном формате (включающие направление и скорость ветра, видимость, явления погоды, количество и форму облачности, нижнюю и верхнюю границу облачности).


Погода Исанбай - сегодня

Время (UTC), дата Ветер
(°,м/с) 
Видим.   Явления Облачность Т
(°С)
Тd
(°С)
f(%) Тe
(°С)
Pmin
(гПа)
dP
(гПа)
Po
(мм)
O2
(г/м3)
Тmin Tmax R s Состояние
почвы
15 10.12.17 180 (Ю) н/о    ясно 
+4.5 -1.9 63 +5  1025.7  0.3  718  285    +12.5       
18 10.12.17 тихо ()   н/о    ясно 
+0.6 -2.3 81 +1  1026.7  718  289           
21 10.12.17 360 (С) н/о    ясно 
-1.2 -3 88 -1  1026.8  -0.2  718  291           
00 11.12.17 тихо ()   н/о    ясно 
-2.7 -4 91 -3  1026.1  -1.1  717  292           
03 11.12.17 360 (С) 20000 м    ясно 
-2.7 -3.7 93 -5  1025.6  -0.5  717  292  -3.5         
06 11.12.17 тихо ()   20000 м    ясно 
+3.6 -3.8 58 +4  1025.1  718  286           
09 11.12.17 230 (ЮЗ) 20000 м    ясно 
+9 -0.9 50 +8  1020.6  -2.9  715  279           
12 11.12.17 200 (Ю) 10 км    ясно 
+7 -0.9 57 +5  1020.5  -0.5  715  281           
15 11.12.17 140 (ЮВ) н/о    ясно 
+2 -2 75 +1  1023.7  1.8  716  287    +9.4       
18 11.12.17 230 (ЮЗ) н/о    ясно 
-1.2 -2.4 92 -3  1025  0.5  717  290           
21 11.12.17 200 (Ю) н/о    ясно 
-2.4 -3.4 93 -2  1025.8  0.4  717  292           
00 12.12.17 230 (ЮЗ) н/о    10/0 верхняя 
[Ci sp]
-1.2 -2.1 94 -2  1025.2  -0.2  717  290           
03 12.12.17 270 (З) 10 км    10/10 600 м кучево-дожд. 
[Cb cap]
+0 -1.8 88 +1  1027  1.9  718  290  -2.8         
06 12.12.17 230 (ЮЗ) 10 км    10/10 600 м кучево-дожд. 
[Cb cap]
+2 -2.7 71 +3  1027.9  1.3  719  288           
09 12.12.17 340 (С) 20000 м    10/10 600 м кучево-дожд. 
[Cb cap]
+5.6 -1.4 61 +5  1026.6  -0.4  719  284           
12 12.12.17 020 (С) 10 км    9/9 600 м кучево-дожд. 
[Cb cap]
+5.2 -0.4 67 +6  1027.7  720  285           
15 12.12.17 050 (СВ) н/о    10/10 600 м кучево-дожд. 
[Cb cap]
+4.3 +0.1 74 +4  1028.9  0.9  720  286    +6.3       
18 12.12.17 тихо ()   н/о    8/8 1000 м кучево-дожд. 
[Cb cap]
+1.9 -1.2 80 +2  1029.9  0.4  721  288           
21 12.12.17 020 (С) н/о    10/10 600 м кучево-дожд. 
[Cb cap]
+0.8 -0.6 90 +1  1030  -0.2  721  289           
00 13.12.17 тихо ()   н/о    ясно 
-2 -2.6 96 -2  1030  -0.7  720  293           
03 13.12.17 тихо ()   20000 м    1/0 верхняя 
[Ci sp]
-3.8 -3.8 100 -4  1031  0.4  720  295  -4         
06 13.12.17 020 (С) 20000 м    1/0 верхняя 
[Ci fib]
+2 +0.4 89 +3  1029.3  -0.1  720  288           
09 13.12.17 200 (Ю) 20000 м    4/1 1000 м верхняя 
[Cu hum|Ci fib]
+7.5 -1.2 54 +7  1025.5  -2.2  719  282           
12 13.12.17 200 (Ю) 20000 м    4/0 верхняя 
[Ci fib]
+7.4 -4.7 42 +8  1024.8  -0.7  718  282           
15 13.12.17 тихо ()   н/о    ясно 
+1.3 -5 63 +1  1027.1  0.6  719  289    +9.3       
Время (UTC), дата Ветер
(°,м/с) 
Видим.   Явления Облачность Т
(°С)
Тd
(°С)
f(%) Тe
(°С)
Pmin
(гПа)
dP
(гПа)
Po
(мм)
O2
(г/м3)
Тmin Tmax R s Состояние
почвы

Для получения пояснительной информации подведите курсор к названию столбца.

ПОГОДА Исанбай - архив

Всё, что Вы хотите узнать о погоде Исанбай - удобно и подробно!

Выберите нужную дату (начиная с 1 января 2015* года) и нажмите кнопку "Найти".
Будут отображены архивные сводки погоды по пункту Исанбай, начиная с указанной даты.


Отображать данные в формате CSV (для использования в таблицах Excel)


Внимание! Наш архив погоды предназначен исключительно для личного некоммерческого использования в познавательных целях. Если Вам необходимы официальные справки о состоянии погоды (для производственных, юридических, коммерческих и т.п. целей), обращайтесь в органы Росгидромета.

*Примечание: данная дата относится к архиву по метеостанциям СССР (Россия, СНГ, Балтия).
Архив по метеостанциям Зарубежной Европы и Азии (кроме Китая) хранится 10 дней, по другим регионам земного шара (Китай, Африка, Америка, Австралия, Океания) - 1 день.

Исанбай - район местоположения метеостанции


Название, широта, долгота, высота метеостанции:
Исанбай 38°ш. 68.4°д. 565 м над ур. моря [Таджикистан]

Дополнительная информация

В oтличие oт бoльшинства пoгoдных сайтoв мы публикуем пoдрoбную метеoинфoрмацию в детальнoм прoфессиoнальнoм фoрмате.

Характеристики температуры и влажнoсти вoздуха измеряются на высoте 2 м в тени вдали oт зданий и деревьев.
Скoрoсть ветра измеряется на высoте 10 м (на урoвне рoста челoвека скoрoсть ветра ниже в 1.5-2 раза). Если метеoстанция нахoдится в гoрoде или в лесу, тo скoрoсть ветра занижена на 2-4 м/с пo сравнению с oткрытым местoм. Скoрoсть ветра над акватoриями крупных рек и oзёр, а также на вершинах хoлмoв на 2-5 м/с выше, чем в oбычных услoвиях.
Атмoсфернoе давление в разных тoчках местнoсти мoжет значительнo oтличаться oт давления на метеoстанции, в зависимoсти oт услoвий рельефа (при пoдъёме на 10 м давление пoнижается примернo на 1 мм рт.ст.).